Satellite: LO-19
Catalog number: 20442
Epoch time:      05293.50837297
Element set:     515
Inclination:      098.2150 deg
RA of node:       320.9915 deg
Eccentricity:    0.0011670
Arg of perigee:   183.9161 deg
Mean anomaly:     176.1939 deg
Mean motion:   14.31940805 rev/day
Decay rate:        2.4e-07 rev/day^2
Epoch rev:           82215
Checksum:              297

Satellite: UO-22
Catalog number: 21575
Epoch time:      05293.80570287
Element set:     533
Inclination:      098.2609 deg
RA of node:       254.5083 deg
Eccentricity:    0.0008340
Arg of perigee:   073.1295 deg
Mean anomaly:     287.0801 deg
Mean motion:   14.39514014 rev/day
Decay rate:        8.7e-07 rev/day^2
Epoch rev:           74857
Checksum:              309

Satellite: KO-23
Catalog number: 22077
Epoch time:      05293.85068884
Element set:     609
Inclination:      066.0848 deg
RA of node:       243.2791 deg
Eccentricity:    0.0012478
Arg of perigee:   226.3825 deg
Mean anomaly:     133.6150 deg
Mean motion:   12.86433559 rev/day
Decay rate:       -3.7e-07 rev/day^2
Epoch rev:           61975
Checksum:              329

Satellite: AO-27
Catalog number: 22825
Epoch time:      05292.53800825
Element set:    0244
Inclination:      098.2613 deg
RA of node:       281.5207 deg
Eccentricity:    0.0007585
Arg of perigee:   252.7077 deg
Mean anomaly:     107.3265 deg
Mean motion:   14.29147935 rev/day
Decay rate:      -1.18e-06 rev/day^2
Epoch rev:           62898
Checksum:              319

Satellite: IO-26
Catalog number: 22826
Epoch time:      05292.96866776
Element set:    0942
Inclination:      098.2581 deg
RA of node:       283.1950 deg
Eccentricity:    0.0008005
Arg of perigee:   252.8676 deg
Mean anomaly:     107.1630 deg
Mean motion:   14.29390346 rev/day
Decay rate:        3.8e-07 rev/day^2
Epoch rev:           62911
Checksum:              326

Satellite: KO-25
Catalog number: 22828
Epoch time:      05292.79881844
Element set:     172
Inclination:      098.2520 deg
RA of node:       283.2124 deg
Eccentricity:    0.0008944
Arg of perigee:   229.3825 deg
Mean anomaly:     130.6583 deg
Mean motion:   14.29701361 rev/day
Decay rate:        1.9e-07 rev/day^2
Epoch rev:           59732
Checksum:              317

Satellite: PO-28
Catalog number: 22829
Epoch time:      05292.86806664
Element set:     213
Inclination:      098.2479 deg
RA of node:       284.2961 deg
Eccentricity:    0.0009004
Arg of perigee:   224.4349 deg
Mean anomaly:     135.6117 deg
Mean motion:   14.30072188 rev/day
Decay rate:       1.14e-06 rev/day^2
Epoch rev:           62929
Checksum:              315

Satellite: TO-31
Catalog number: 25396
Epoch time:      05292.73627727
Element set:    0375
Inclination:      098.5161 deg
RA of node:       356.1669 deg
Eccentricity:    0.0002881
Arg of perigee:   160.7024 deg
Mean anomaly:     199.4283 deg
Mean motion:   14.23684071 rev/day
Decay rate:      -2.11e-06 rev/day^2
Epoch rev:           37813
Checksum:              317

Satellite: GO-32
Catalog number: 25397
Epoch time:      05293.71636698
Element set:     863
Inclination:      098.5059 deg
RA of node:       354.3805 deg
Eccentricity:    0.0001444
Arg of perigee:   154.6935 deg
Mean anomaly:     205.4317 deg
Mean motion:   14.23089987 rev/day
Decay rate:        6.0e-08 rev/day^2
Epoch rev:           37818
Checksum:              341

Satellite: UO-36
Catalog number: 25693
Epoch time:      05293.80791566
Element set:     682
Inclination:      064.5564 deg
RA of node:       257.9163 deg
Eccentricity:    0.0010667
Arg of perigee:   201.6723 deg
Mean anomaly:     158.3930 deg
Mean motion:   14.78547956 rev/day
Decay rate:        6.8e-07 rev/day^2
Epoch rev:           35039
Checksum:              345

Satellite: SO-41
Catalog number: 26545
Epoch time:      05293.44364169
Element set:     203
Inclination:      064.5567 deg
RA of node:       272.2524 deg
Eccentricity:    0.0055662
Arg of perigee:   286.0249 deg
Mean anomaly:     073.4707 deg
Mean motion:   14.80178815 rev/day
Decay rate:       1.29e-06 rev/day^2
Epoch rev:           27346
Checksum:              315

Satellite: MO-46
Catalog number: 26548
Epoch time:      05293.36606025
Element set:     314
Inclination:      064.5564 deg
RA of node:       253.4339 deg
Eccentricity:    0.0051231
Arg of perigee:   280.4761 deg
Mean anomaly:     079.0590 deg
Mean motion:   14.82833478 rev/day
Decay rate:       3.09e-06 rev/day^2
Epoch rev:           27384
Checksum:              313

Satellite: SO-42
Catalog number: 26549
Epoch time:      05293.46102978
Element set:     273
Inclination:      064.5562 deg
RA of node:       281.5024 deg
Eccentricity:    0.0058427
Arg of perigee:   289.0852 deg
Mean anomaly:     070.3932 deg
Mean motion:   14.79053672 rev/day
Decay rate:       1.55e-06 rev/day^2
Epoch rev:           27328
Checksum:              321

Satellite: NO-44
Catalog number: 26931
Epoch time:      05293.42603485
Element set:     148
Inclination:      067.0510 deg
RA of node:       265.2300 deg
Eccentricity:    0.0005495
Arg of perigee:   266.6378 deg
Mean anomaly:     093.4110 deg
Mean motion:   14.29408240 rev/day
Decay rate:       2.27e-06 rev/day^2
Epoch rev:           21166
Checksum:              280

